The Eastern Iowa Airport
Sunday 2:52 PM
Temperature72° (72°/48°)
Dew Point46°
Relative Humidity39
%
Visibility10
mi
Pressure1024.7
mb
Wind DirectionE
90°
Wind Speed5
mph
Precipitation Today0.00"

Last 30 Observations

Time PresWx Temp DP Feels RH% Vsby Pressure Ceiling Direction Speed 1h Precip
2:52 PM 72° 46° 40
%
10
mi
1024.7
mb
E
90°
5
mph
0.00"
1:57 PM 72° 48° 43
%
10
mi
1025.4
mb
E
90°
5
mph
0.00"
1:52 PM 72° 48° 43
%
10
mi
1025.4
mb
0.00"
12:55 PM 70° 46° 42
%
10
mi
1026.1
mb
SE
130°
3
mph
0.00"
12:52 PM 70° 46° 42
%
10
mi
1026.1
mb
0.00"
11:52 AM 69° 47° 45
%
10
mi
1026.4
mb
SSE
160°
8
mph
0.00"
10:52 AM 66° 49° 54
%
10
mi
1026.8
mb
Variable 5
mph
0.00"
9:52 AM 63° 50° 63
%
10
mi
1027.4
mb
SSE
160°
6
mph
0.00"
8:52 AM 58° 50° 75
%
10
mi
1027.1
mb
ESE
120°
9
mph
0.00"
7:52 AM 57° 47° 69
%
10
mi
1026.8
mb
11,000
ft
E
100°
11
mph
0.00"
6:52 AM 52° 48° 86
%
10
mi
1025.7
mb
E
90°
5
mph
0.00"
5:52 AM 49° 42° 77
%
10
mi
1025.4
mb
Calm 0.00"
4:52 AM 52° 44° 74
%
10
mi
1025.1
mb
Calm 0.00"
3:52 AM 53° 43° 69
%
10
mi
1025.1
mb
NE
40°
5
mph
0.00"
2:52 AM 55° 43° 64
%
10
mi
1024.7
mb
NE
40°
5
mph
0.00"
1:52 AM 54° 43° 66
%
10
mi
1024.4
mb
Calm 0.00"
12:52 AM 56° 43° 62
%
10
mi
1024.4
mb
NE
50°
7
mph
0.00"
11:52 PM 56° 44° 64
%
10
mi
1024.1
mb
ENE
60°
8
mph
0.00"
10:52 PM 62° 44° 52
%
10
mi
1024.1
mb
NE
40°
5
mph
0.00"
9:52 PM 59° 44° 58
%
10
mi
1023.4
mb
Calm 0.00"
8:52 PM 63° 44° 50
%
10
mi
1023.0
mb
NNE
20°
5
mph
0.00"
7:52 PM 67° 43° 42
%
10
mi
1023.0
mb
N
360°
9
mph
0.00"
6:52 PM 69° 42° 38
%
10
mi
1022.7
mb
N
350°
13
mph
0.00"
5:52 PM 70° 43° 38
%
10
mi
1022.7
mb
N
10°
14
mph
0.00"
4:52 PM 70° 43° 38
%
10
mi
1023.0
mb
N
360°
10
mph
0.00"
3:52 PM 70° 42° 36
%
10
mi
1023.4
mb
N
350°
10
mph
(G22)
0.00"
2:52 PM 70° 44° 39
%
10
mi
1023.0
mb
NNE
20°
10
mph
(G24)
0.00"
1:52 PM 70° 47° 44
%
10
mi
1023.4
mb
NNW
330°
13
mph
(G23)
0.00"
12:52 PM 68° 47° 47
%
10
mi
1024.1
mb
NW
320°
10
mph
(G18)
0.00"
11:52 AM 68° 48° 49
%
10
mi
1024.1
mb
NNW
340°
13
mph
0.00"